Overview Statistics Trail Chart Weather Telemetry Raw packets
 

This is the latest recevied weather packets stored in our database for station/object KA1BMF-13. If no packets are shown the sender has not sent any weather packets the latest 10 day(s).

<< 16 17 18 19 20 21 22 >>
Time Temp. Humidity Pressure Rain* Wind** Luminosity Snow
1788376217 21.67° C 71% 1020.2 hPa 0 mm - 108 W/m² -
1788375617 22.22° C 71% 1020.1 hPa 0 mm - 168 W/m² -
1788375018 22.22° C 69% 1020.1 hPa 0 mm - 185 W/m² -
1788374417 22.78° C 68% 1019.9 hPa 0 mm - 194 W/m² -
1788373818 22.22° C 67% 1020 hPa 0 mm - 367 W/m² -
1788373218 22.22° C 65% 1020.2 hPa 0 mm - 311 W/m² -
1788372618 22.22° C 66% 1020.3 hPa 0 mm - 570 W/m² -
1788372019 22.22° C 63% 1020.5 hPa 0 mm - 258 W/m² -
1788371416 22.78° C 63% 1020.4 hPa 0 mm - 386 W/m² -
1788370818 22.78° C 65% 1020.5 hPa 0 mm - 385 W/m² -
1788370218 22.22° C 70% 1020.7 hPa 0 mm - 305 W/m² -
1788369619 22.78° C 67% 1020.5 hPa 0 mm - 373 W/m² -
1788369016 22.78° C 68% 1020.1 hPa 0 mm - 494 W/m² -
1788368416 22.22° C 67% 1020.2 hPa 0 mm - 523 W/m² -
1788367816 22.22° C 66% 1020.3 hPa 0 mm - 599 W/m² -
1788367220 21.67° C 68% 1020.5 hPa 0 mm - 544 W/m² -
1788366617 22.22° C 69% 1020.4 hPa 0 mm - 455 W/m² -
1788366017 22.22° C 69% 1020.5 hPa 0 mm - 340 W/m² -
1788365418 21.67° C 69% 1020.5 hPa 0 mm - 338 W/m² -
1788364818 22.22° C 67% 1020.5 hPa 0 mm - 435 W/m² -
1788364218 22.22° C 64% 1020.7 hPa 0 mm - 573 W/m² -
1788363618 22.22° C 69% 1020.8 hPa 0 mm - 573 W/m² -
1788363018 21.67° C 76% 1020.9 hPa 0 mm - 477 W/m² -
1788362418 21.11° C 75% 1021 hPa 0 mm - 354 W/m² -
1788361824 21.67° C 74% 1021 hPa 0 mm - 422 W/m² -

* Rain latest hour (hover to see other rain measurements)
** Current wind speed in m/s (hover to see current wind gust speed)